Hourly Data Report for October 25, 2016

All times are specified in Local Standard Time (LST). Add 1 hour to adjust for Daylight Saving Time where and when it is observed.

KAMLOOPS A
BRITISH COLUMBIA

50°42'09.000" N
120°26'55.000" W
345.30 m
1163781
71887
YKA

Download Data

Hourly Data (October 2016)
Hourly Data Report for October 25, 2016
Temp Definition
°C
Dew Point Temp Definition
°C
Rel Hum Definition
%
Wind Dir Definition
10's deg

Wind Spd Definition
km/h
Visibility Definition
km
Stn Press Definition
kPa
Hmdx Definition


Wind Chill Definition


Weather Definition


TIME
00:00 Legend Double Dagger 10.2 7.5 83 28 24 32.2 96.60     Rain
01:00 Legend Double Dagger 9.4 8.2 92 8 16 32.2 96.68     Rain
02:00 Legend Double Dagger 9.7 8.2 90 7 21 32.2 96.68     LegendNANA
03:00 Legend Double Dagger 9.8 7.4 85 7 18 32.2 96.70     LegendNANA
04:00 Legend Double Dagger 9.8 7.1 83 5 13 32.2 96.78     Cloudy
05:00 Legend Double Dagger 9.6 7.4 86 7 15 32.2 96.85     LegendNANA
06:00 Legend Double Dagger 9.8 6.0 77 36 5 64.4 96.93     LegendNANA
07:00 Legend Double Dagger 9.7 6.6 81 7 19 64.4 97.06     Mostly Cloudy
08:00 Legend Double Dagger 10.2 7.1 81 4 17 64.4 97.13     LegendNANA
09:00 Legend Double Dagger 10.2 7.8 85 9 22 64.4 97.21     LegendNANA
10:00 Legend Double Dagger 11.5 7.6 77 9 17 64.4 97.22     Mostly Cloudy
11:00 Legend Double Dagger 13.1 6.7 65 12 18 64.4 97.24     LegendNANA
12:00 Legend Double Dagger 13.8 6.5 61 10 26 64.4 97.20     LegendNANA
13:00 Legend Double Dagger 16.6 2.3 38 16 19 64.4 97.20     Mostly Cloudy
14:00 Legend Double Dagger 16.5 4.6 45 11 16 64.4 97.20     LegendNANA
15:00 Legend Double Dagger 14.8 6.2 56 10 27 64.4 97.22     LegendNANA
16:00 Legend Double Dagger 14.1 6.0 58 10 23 64.4 97.27     Mostly Cloudy
17:00 Legend Double Dagger 14.1 4.2 51 32 3 64.4 97.34     LegendNANA
18:00 Legend Double Dagger 12.7 5.4 61 9 16 64.4 97.41     LegendNANA
19:00 Legend Double Dagger 11.9 5.1 63 7 17 64.4 97.46     Mainly Clear
20:00 Legend Double Dagger 10.5 5.7 72 8 13 64.4 97.52     LegendNANA
21:00 Legend Double Dagger 9.9 5.3 73 7 10 64.4 97.56     LegendNANA
22:00 Legend Double Dagger 9.5 5.5 76 7 14 64.4 97.60     Mainly Clear
23:00 Legend Double Dagger 8.5 5.3 80 9 17 64.4 97.66     LegendNANA

Notes on Data Quality.

Legend

  • E = Estimated
  • M = Missing
  • NA = Not Available
  • ‡ = Partner data that is not subject to review by the National Climate Archives
Date modified: